FW7556 Weather Reports


time (UTC)temp
C
wind
direction
speed
KPH
gust
KPH
rain 1hr
cm
rain 24hr
cm
rain mn
cm
humidity
%
barometer
mb
20260504184447 25 299 8.0 11.3 0.00 0.00 0.00 35 1014.9
20260504183943 25 270 1.6 3.2 0.00 0.00 0.00 35 1015.0
20260504183440 25 263 1.6 4.8 0.00 0.00 0.00 35 1015.2
20260504182938 25 99 0.0 6.4 0.00 0.00 0.00 35 1015.2
20260504182435 25 107 0.0 9.7 0.00 0.00 0.00 36 1015.0
20260504181932 25 180 4.8 6.4 0.00 0.00 0.00 34 1015.0
20260504181429 25 337 0.0 9.7 0.00 0.00 0.00 36 1015.4
20260504180928 25 223 6.4 16.1 0.00 0.00 0.00 35 1015.3
20260504180426 24 192 0.0 3.2 0.00 0.00 0.00 36 1015.4
20260504175924 24 186 1.6 6.4 0.00 0.00 0.00 35 1015.3
20260504175421 24 7 0.0 4.8 0.00 0.00 0.00 35 1015.3
20260504174918 24 117 1.6 3.2 0.00 0.00 0.00 35 1015.5
20260504174416 24 270 1.6 4.8 0.00 0.00 0.00 36 1015.4
20260504173913 24 263 0.0 4.8 0.00 0.00 0.00 37 1015.6
20260504173409 24 232 9.7 9.7 0.00 0.00 0.00 37 1015.7
20260504172907 23 231 4.8 6.4 0.00 0.00 0.00 35 1015.6
20260504172403 23 350 3.2 6.4 0.00 0.00 0.00 36 1015.8
20260504171859 23 299 3.2 11.3 0.00 0.00 0.00 36 1015.7
20260504171357 23 351 3.2 6.4 0.00 0.00 0.00 36 1015.8
20260504170853 23 321 4.8 6.4 0.00 0.00 0.00 36 1015.8
20260504170350 23 97 1.6 4.8 0.00 0.00 0.00 37 1016.0
20260504160309 22 103 0.0 6.4 0.00 0.00 0.00 38 1017.2
20260504150734 20 173 1.6 6.4 0.00 0.00 0.00 49 1017.4
20260504150231 20 20 4.8 4.8 0.00 0.00 0.00 48 1017.4
20260504141200 17 66 0.0 4.8 0.00 0.00 0.00 61 1017.0
20260504140657 17 270 0.0 1.6 0.00 0.00 0.00 61 1016.9
20260504140152 16 194 1.6 4.8 0.00 0.00 0.00 62 1016.9
20260504130620 13 279 0.0 1.6 0.00 0.00 0.00 72 1017.3
20260504130117 13 90 0.0 3.2 0.00 0.00 0.00 72 1017.4
20260504110508 6 90 0.0 0.0 0.00 0.00 0.00 75 1017.2
20260504100430 6 111 0.0 0.0 0.00 0.00 0.00 73 1017.2
20260504081824 6 66 0.0 1.6 0.00 0.00 0.00 69 1017.1
20260504081320 6 23 0.0 0.0 0.00 0.00 0.00 69 1017.1
20260504080816 6 23 0.0 0.0 0.00 0.00 0.00 69 1016.8
20260504080314 6 23 0.0 0.0 0.00 0.00 0.00 69 1017.0
20260504070241 7 75 0.0 0.0 0.00 0.00 0.00 66 1016.8
20260504060201 8 162 0.0 1.6 0.00 0.00 0.00 63 1017.0
20260504050629 8 145 0.0 1.6 0.00 0.00 0.00 63 1017.4
20260504050126 8 114 0.0 1.6 0.00 0.00 0.00 63 1017.4
20260504045624 8 120 0.0 1.6 0.00 0.00 0.00 62 1017.3
20260504045118 8 106 1.6 1.6 0.00 0.00 0.00 62 1017.4
20260504044616 8 103 0.0 1.6 0.00 0.00 0.00 62 1017.2
20260504044113 8 106 0.0 1.6 0.00 0.00 0.00 62 1017.2
20260504043610 9 120 0.0 4.8 0.00 0.00 0.00 62 1017.2
20260504043107 8 145 0.0 3.2 0.00 0.00 0.00 62 1017.1
20260504042604 8 145 0.0 1.6 0.00 0.00 0.00 62 1017.2
20260504042101 8 99 0.0 3.2 0.00 0.00 0.00 62 1017.1
20260504041556 8 120 0.0 3.2 0.00 0.00 0.00 62 1017.3
20260504041053 8 114 0.0 1.6 0.00 0.00 0.00 62 1017.1
20260504040550 8 114 0.0 1.6 0.00 0.00 0.00 62 1017.1
20260504040047 8 145 0.0 3.2 0.00 0.00 0.00 62 1017.3
20260504035544 8 120 0.0 3.2 0.00 0.00 0.00 61 1017.3
20260504035040 7 114 0.0 1.6 0.00 0.00 0.00 61 1017.3
20260504034538 7 157 0.0 1.6 0.00 0.00 0.00 60 1017.2
20260504034035 7 157 0.0 1.6 0.00 0.00 0.00 60 1017.2
20260504033533 7 145 0.0 0.0 0.00 0.00 0.00 60 1017.2
20260504033030 8 151 0.0 0.0 0.00 0.00 0.00 60 1017.2
20260504032527 8 106 0.0 0.0 0.00 0.00 0.00 60 1017.0
20260504032024 8 106 0.0 0.0 0.00 0.00 0.00 60 1017.1
20260504031521 7 157 0.0 1.6 0.00 0.00 0.00 59 1017.1
20260504031017 8 154 0.0 1.6 0.00 0.00 0.00 58 1017.3
20260504030514 8 106 0.0 0.0 0.00 0.00 0.00 58 1017.1
20260504030010 8 106 0.0 0.0 0.00 0.00 0.00 58 1017.5
20260504025507 8 106 0.0 0.0 0.00 0.00 0.00 57 1017.2
20260504025004 8 106 0.0 0.0 0.00 0.00 0.00 57 1017.1
20260504024502 8 106 0.0 0.0 0.00 0.00 0.00 57 1017.1
20260504023958 8 106 0.0 0.0 0.00 0.00 0.00 56 1017.0
20260504023455 8 106 0.0 0.0 0.00 0.00 0.00 56 1017.2
20260504022950 8 106 0.0 0.0 0.00 0.00 0.00 55 1017.4
20260504022446 8 165 0.0 0.0 0.00 0.00 0.00 55 1017.1
20260504021943 8 165 0.0 0.0 0.00 0.00 0.00 54 1016.9
20260504021441 8 165 0.0 0.0 0.00 0.00 0.00 54 1016.9
20260504020938 8 165 0.0 0.0 0.00 0.00 0.00 54 1017.0
20260504020434 9 165 0.0 0.0 0.00 0.00 0.00 54 1016.8
20260504015931 8 165 0.0 0.0 0.00 0.00 0.00 53 1016.6
20260504015427 9 165 0.0 0.0 0.00 0.00 0.00 53 1016.8
20260504014923 9 165 0.0 0.0 0.00 0.00 0.00 53 1016.4
20260504014419 9 165 0.0 0.0 0.00 0.00 0.00 53 1016.5
20260504013916 9 165 0.0 0.0 0.00 0.00 0.00 52 1016.5
20260504013415 9 165 0.0 0.0 0.00 0.00 0.00 51 1016.4
20260504012910 9 165 0.0 1.6 0.00 0.00 0.00 51 1016.6
20260504012409 10 166 0.0 1.6 0.00 0.00 0.00 50 1016.8
20260504011906 10 165 0.0 0.0 0.00 0.00 0.00 49 1016.5
20260504011403 10 165 0.0 0.0 0.00 0.00 0.00 49 1016.6
20260504010858 10 352 0.0 0.0 0.00 0.00 0.00 48 1016.4
20260504010354 10 352 0.0 0.0 0.00 0.00 0.00 47 1016.4
20260504005851 10 352 0.0 0.0 0.00 0.00 0.00 47 1016.4
20260504005348 10 352 0.0 0.0 0.00 0.00 0.00 46 1016.5
20260504004845 11 352 0.0 0.0 0.00 0.00 0.00 46 1016.4
20260504004343 11 352 0.0 0.0 0.00 0.00 0.00 45 1016.3
20260504003839 11 352 0.0 0.0 0.00 0.00 0.00 45 1016.2
20260504003336 11 352 0.0 0.0 0.00 0.00 0.00 44 1016.2
20260504002833 11 352 0.0 0.0 0.00 0.00 0.00 43 1016.1
20260504002329 12 352 0.0 0.0 0.00 0.00 0.00 43 1016.2
20260504001827 12 352 0.0 0.0 0.00 0.00 0.00 42 1016.3
20260504001324 12 352 0.0 0.0 0.00 0.00 0.00 41 1016.1
20260504000821 12 352 0.0 0.0 0.00 0.00 0.00 41 1016.1
20260504000318 13 352 0.0 0.0 0.00 0.00 0.00 40 1015.9
20260503235816 13 352 0.0 0.0 0.00 0.00 0.00 40 1015.8
20260503235313 13 352 0.0 0.0 0.00 0.00 0.00 39 1016.0
20260503234810 13 352 0.0 0.0 0.00 0.00 0.00 38 1016.0
20260503234308 14 352 0.0 0.0 0.00 0.00 0.00 37 1015.9
20260503233806 15 148 3.2 3.2 0.00 0.00 0.00 37 1016.0
20260503233301 15 240 0.0 1.6 0.00 0.00 0.00 36 1016.0
20260503232758 15 203 0.0 0.0 0.00 0.00 0.00 35 1016.0
20260503232256 15 203 0.0 0.0 0.00 0.00 0.00 34 1016.0
20260503231754 16 270 0.0 0.0 0.00 0.00 0.00 33 1015.9
20260503231250 16 194 0.0 3.2 0.00 0.00 0.00 32 1016.1
20260503230746 16 279 0.0 4.8 0.00 0.00 0.00 31 1015.9
20260503230244 16 248 0.0 0.0 0.00 0.00 0.00 32 1016.0
20260503225741 16 248 0.0 3.2 0.00 0.00 0.00 31 1015.8
20260503225241 16 180 3.2 3.2 0.00 0.00 0.00 30 1015.9
20260503224738 16 203 0.0 9.7 0.00 0.00 0.00 30 1015.9
20260503224236 16 171 0.0 8.0 0.00 0.00 0.00 31 1015.9
20260503223733 16 279 0.0 6.4 0.00 0.00 0.00 31 1016.3
20260503223231 16 270 0.0 1.6 0.00 0.00 0.00 31 1016.2
20260503222727 16 81 0.0 1.6 0.00 0.00 0.00 31 1016.2
20260503222225 16 278 0.0 0.0 0.00 0.00 0.00 31 1016.3
20260503221723 16 278 0.0 3.2 0.00 0.00 0.00 31 1016.3
20260503221221 16 203 0.0 3.2 0.00 0.00 0.00 30 1016.4
20260503220717 16 246 0.0 3.2 0.00 0.00 0.00 30 1016.4
20260503220214 17 279 0.0 3.2 0.00 0.00 0.00 30 1016.5
20260503215710 17 294 0.0 1.6 0.00 0.00 0.00 30 1016.6
20260503215207 17 279 0.0 1.6 0.00 0.00 0.00 30 1016.5
20260503214700 17 84 0.0 4.8 0.00 0.00 0.00 29 1016.5
20260503214156 17 180 0.0 9.7 0.00 0.00 0.00 28 1016.7
20260503213655 17 185 4.8 8.0 0.00 0.00 0.00 30 1016.8
20260503213151 17 246 0.0 4.8 0.00 0.00 0.00 30 1016.6
20260503212649 17 352 3.2 8.0 0.00 0.00 0.00 29 1016.9
20260503212146 17 270 1.6 9.7 0.00 0.00 0.00 29 1016.7
20260503211644 17 283 0.0 6.4 0.00 0.00 0.00 30 1016.7
20260503211139 17 109 0.0 3.2 0.00 0.00 0.00 30 1016.6
20260503210635 17 288 4.8 14.5 0.00 0.00 0.00 29 1016.8
20260503210132 16 210 3.2 9.7 0.00 0.00 0.00 29 1016.9
20260503205628 16 186 1.6 8.0 0.00 0.00 0.00 29 1017.0
20260503205124 16 6 1.6 6.4 0.00 0.00 0.00 31 1016.8
20260503204621 16 14 1.6 3.2 0.00 0.00 0.00 30 1016.8
20260503204119 16 358 9.7 9.7 0.00 0.00 0.00 30 1016.8
20260503203616 16 65 3.2 3.2 0.00 0.00 0.00 30 1016.9
20260503203113 16 18 0.0 4.8 0.00 0.00 0.00 29 1017.1
20260503202611 16 303 0.0 8.0 0.00 0.00 0.00 30 1017.0
20260503202108 16 26 3.2 8.0 0.00 0.00 0.00 30 1017.1
20260503201606 17 339 4.8 4.8 0.00 0.00 0.00 29 1017.2
20260503201103 17 12 0.0 6.4 0.00 0.00 0.00 30 1017.3
20260503200559 17 180 4.8 9.7 0.00 0.00 0.00 29 1017.5
20260503200056 16 159 3.2 6.4 0.00 0.00 0.00 30 1017.4
20260503195553 17 29 0.0 4.8 0.00 0.00 0.00 30 1017.5
20260503195050 17 308 8.0 8.0 0.00 0.00 0.00 29 1017.3
20260503194547 17 303 4.8 6.4 0.00 0.00 0.00 30 1017.7
20260503194047 17 116 4.8 9.7 0.00 0.00 0.00 30 1017.3
20260503193544 17 240 0.0 6.4 0.00 0.00 0.00 31 1017.6
20260503193039 17 217 6.4 11.3 0.00 0.00 0.00 30 1017.6
20260503192536 17 199 4.8 6.4 0.00 0.00 0.00 30 1017.7
20260503192031 17 10 0.0 8.0 0.00 0.00 0.00 29 1018.0
20260503191528 17 288 3.2 3.2 0.00 0.00 0.00 32 1017.8
20260503191025 17 151 1.6 3.2 0.00 0.00 0.00 31 1017.9
20260503190522 17 8 0.0 3.2 0.00 0.00 0.00 31 1018.0
20260503190019 17 126 0.0 4.8 0.00 0.00 0.00 32 1018.1
20260503185515 17 23 1.6 4.8 0.00 0.00 0.00 31 1018.3
20260503185010 17 300 4.8 4.8 0.00 0.00 0.00 31 1018.3